Location: Ostrava
(49.8330°N, 18.2830°E)
Time: 07:35:27
(UTC+02:00)

Cosmos 2219 Rocket - Visible Passes

Search period start: 26 May 2015 00:00
Search period end: 05 June 2015 00:00
Orbit: 828 x 847 km, 71.0° (Epoch: 25 May)

Date Brightness Start Highest point End Pass type
(mag) Time Alt. Az. Time Alt. Az. Time Alt. Az.
26 May 4.5 01:45:15 10° W 01:49:17 19° NW 01:53:13 10° N visible
26 May 3.6 22:01:38 13° SE 22:04:31 20° ESE 22:08:33 10° NE visible
26 May 2.3 23:43:18 16° SW 23:47:54 77° WNW 23:53:36 10° NNE visible
27 May 4.5 01:28:46 10° W 01:32:54 20° NW 01:36:58 10° N visible
27 May 3.6 21:44:46 11° SE 21:48:15 19° E 21:52:06 10° ENE visible
27 May 2.2 23:26:24 12° SSW 23:31:36 82° WNW 23:37:18 10° NNE visible
28 May 4.4 01:12:17 10° W 01:16:31 21° NW 01:20:42 10° N visible
28 May 3.7 21:28:34 10° SE 21:32:00 17° E 21:35:39 10° ENE visible
28 May 2.2 23:09:40 10° SSW 23:15:17 87° WNW 23:20:59 10° NNE visible
29 May 4.4 00:55:48 10° W 01:00:09 22° NW 01:04:26 10° N visible
29 May 2.2 22:53:22 10° SSW 22:58:59 89° ESE 23:04:41 10° NNE visible
30 May 4.4 00:39:20 10° W 00:43:47 23° NW 00:48:10 10° NNE visible
30 May 2.1 22:37:04 10° SSW 22:42:41 84° ESE 22:48:22 10° NNE visible
31 May 4.4 00:22:52 10° W 00:27:24 24° NW 00:31:54 10° NNE visible
31 May 2.1 22:20:47 10° SSW 22:26:22 79° ESE 22:32:04 10° NNE visible
01 Jun 4.3 00:06:24 10° W 00:11:02 25° NW 00:15:38 10° NNE visible
01 Jun 2.1 22:04:29 10° SSW 22:10:04 74° ESE 22:15:45 10° NNE visible
01 Jun 4.3 23:49:57 10° W 23:54:40 26° NW 23:59:21 10° NNE visible
02 Jun 2.2 21:48:13 10° SSW 21:53:46 70° ESE 21:59:25 10° NNE visible
02 Jun 4.3 23:33:30 10° WSW 23:38:18 27° NW 23:43:05 10° NNE visible
03 Jun 5.5 01:23:42 10° NNW 01:24:26 10° NNW 01:25:02 10° NNW visible
03 Jun 2.2 21:31:56 10° SSW 21:37:29 65° ESE 21:43:06 10° NNE visible
03 Jun 4.2 23:17:04 10° WSW 23:21:56 29° NW 23:26:48 10° NNE visible
04 Jun 5.4 01:06:52 10° NNW 01:08:01 10° NNW 01:09:02 10° N visible
04 Jun 4.2 23:00:37 10° WSW 23:05:35 30° NW 23:10:32 10° NNE visible
